Tracking 30995 objects as of 7-Jul-2025
HD Live streaming from Space Station
objects crossing your sky now

USA 335

Track USA 335 now!
10-day predictions


NORAD ID: 53352
Int'l Code: 2022-091A
Perigee: 531.1 km
Apogee: 536.3 km
Inclination: 70.0 °
Period: 95.2 minutes
Semi major axis: 6904 km
RCS: Unknown
Launch date: August 4, 2022
Source: United States (US)
Launch site: Rocket Lab Launch Complex (RLLC)
Your satellite tracking list
Your tracking list is empty




NASA's NSSDC Master Catalog

Two Line Element Set (TLE):
1 53352U 22091A   24296.76552711 0.00066500  00000-0  37376-2 0    07
2 53352  70.0128 158.2452 0003780 231.4901 128.5099 15.13172950    01
Source of the keplerian elements: McCants